Time,TemperatureF,DewpointF,PressureIn,WindDirection,WindDirectionDegrees,WindSpeedMPH,WindSpeedGustMPH,Humidity,HourlyPrecipIn,Conditions,Clouds,dailyrainin,SoftwareType,DateUTC
2013-03-17 00:01:00,20.5,11.0,30.17,NW,313,7.0,10.0,66,0.00,,,0.02,weatherlink.com 1.10,2013-03-17 05:01:00,
2013-03-17 00:47:00,19.7,10.0,30.20,NW,315,7.0,9.0,65,0.00,,,0.02,weatherlink.com 1.10,2013-03-17 05:47:00,
2013-03-17 01:02:00,19.3,10.0,30.20,NW,315,6.0,12.0,66,0.00,,,0.02,weatherlink.com 1.10,2013-03-17 06:02:00,
2013-03-17 01:17:00,18.8,9.0,30.21,NW,317,7.0,11.0,66,0.00,,,0.02,weatherlink.com 1.10,2013-03-17 06:17:00,
2013-03-17 01:32:00,18.5,8.0,30.22,NNW,344,7.0,11.0,65,0.00,,,0.02,weatherlink.com 1.10,2013-03-17 06:32:00,
2013-03-17 01:47:00,18.0,8.0,30.23,NW,322,4.0,6.0,66,0.00,,,0.02,weatherlink.com 1.10,2013-03-17 06:47:00,
2013-03-17 02:02:00,17.5,8.0,30.23,NW,326,3.0,6.0,67,0.00,,,0.02,weatherlink.com 1.10,2013-03-17 07:02:00,
2013-03-17 02:17:00,17.1,8.0,30.24,North,351,5.0,8.0,68,0.00,,,0.02,weatherlink.com 1.10,2013-03-17 07:17:00,
2013-03-17 02:32:00,17.0,8.0,30.24,North,360,3.0,7.0,69,0.00,,,0.02,weatherlink.com 1.10,2013-03-17 07:32:00,
2013-03-17 02:47:00,16.7,8.0,30.25,NNE,22,2.0,9.0,69,0.00,,,0.02,weatherlink.com 1.10,2013-03-17 07:47:00,
2013-03-17 03:02:00,16.4,8.0,30.25,NNE,25,3.0,10.0,68,0.00,,,0.02,weatherlink.com 1.10,2013-03-17 08:02:00,
2013-03-17 03:17:00,16.2,7.0,30.25,NNE,14,7.0,13.0,68,0.00,,,0.02,weatherlink.com 1.10,2013-03-17 08:17:00,
2013-03-17 03:47:00,15.3,7.0,30.25,North,355,7.0,10.0,70,0.00,,,0.02,weatherlink.com 1.10,2013-03-17 08:47:00,
2013-03-17 04:02:00,14.9,7.0,30.25,East,84,6.0,11.0,70,0.00,,,0.02,weatherlink.com 1.10,2013-03-17 09:02:00,
2013-03-17 04:17:00,14.4,7.0,30.25,NNE,22,4.0,10.0,71,0.00,,,0.02,weatherlink.com 1.10,2013-03-17 09:17:00,
2013-03-17 04:32:00,13.9,6.0,30.25,NNE,29,3.0,11.0,72,0.00,,,0.02,weatherlink.com 1.10,2013-03-17 09:32:00,
2013-03-17 04:47:00,13.5,6.0,30.25,NW,325,3.0,12.0,72,0.00,,,0.02,weatherlink.com 1.10,2013-03-17 09:47:00,
2013-03-17 05:02:00,13.2,6.0,30.25,NNE,28,7.0,10.0,73,0.00,,,0.02,weatherlink.com 1.10,2013-03-17 10:02:00,
2013-03-17 05:17:00,13.9,8.0,30.25,NNE,18,3.0,10.0,78,0.00,,,0.02,weatherlink.com 1.10,2013-03-17 10:17:00,
2013-03-17 05:32:00,13.7,8.0,30.25,NNE,24,7.0,11.0,78,0.00,,,0.02,weatherlink.com 1.10,2013-03-17 10:32:00,
2013-03-17 05:47:00,13.5,8.0,30.25,NW,325,2.0,9.0,79,0.00,,,0.00,weatherlink.com 1.10,2013-03-17 10:47:00,
2013-03-17 06:02:00,13.3,8.0,30.26,East,86,3.0,6.0,79,0.00,,,0.00,weatherlink.com 1.10,2013-03-17 11:02:00,
2013-03-17 06:17:00,12.9,8.0,30.26,West,279,3.0,6.0,79,0.00,,,0.00,weatherlink.com 1.10,2013-03-17 11:17:00,
2013-03-17 06:32:00,12.7,7.0,30.26,NNW,340,5.0,7.0,79,0.00,,,0.00,weatherlink.com 1.10,2013-03-17 11:32:00,
2013-03-17 06:47:00,12.8,8.0,30.26,NW,324,4.0,8.0,80,0.00,,,0.00,weatherlink.com 1.10,2013-03-17 11:47:00,
2013-03-17 07:02:00,12.6,8.0,30.26,ENE,69,4.0,7.0,80,0.00,,,0.00,weatherlink.com 1.10,2013-03-17 12:02:00,
2013-03-17 07:17:00,12.5,7.0,30.27,NE,55,2.0,8.0,79,0.00,,,0.00,weatherlink.com 1.10,2013-03-17 12:17:00,
2013-03-17 07:33:00,12.4,7.0,30.27,NNE,26,4.0,9.0,78,0.00,,,0.00,weatherlink.com 1.10,2013-03-17 12:33:00,
2013-03-17 07:48:00,12.8,7.0,30.27,East,84,3.0,11.0,76,0.00,,,0.00,weatherlink.com 1.10,2013-03-17 12:48:00,
2013-03-17 08:03:00,12.8,6.0,30.28,NE,49,4.0,10.0,75,0.00,,,0.00,weatherlink.com 1.10,2013-03-17 13:03:00,
2013-03-17 08:18:00,13.0,6.0,30.29,ESE,105,3.0,8.0,74,0.00,,,0.00,weatherlink.com 1.10,2013-03-17 13:18:00,
2013-03-17 08:33:00,13.6,7.0,30.29,NE,53,4.0,9.0,74,0.00,,,0.00,weatherlink.com 1.10,2013-03-17 13:33:00,
2013-03-17 08:48:00,14.0,7.0,30.30,ENE,77,8.0,15.0,72,0.00,,,0.00,weatherlink.com 1.10,2013-03-17 13:48:00,
2013-03-17 09:03:00,15.1,7.0,30.31,ESE,104,9.0,19.0,70,0.00,,,0.00,weatherlink.com 1.10,2013-03-17 14:03:00,
2013-03-17 09:18:00,15.0,7.0,30.31,ENE,64,12.0,17.0,70,0.00,,,0.00,weatherlink.com 1.10,2013-03-17 14:18:00,
2013-03-17 09:33:00,15.7,8.0,30.32,East,98,11.0,18.0,72,0.00,,,0.00,weatherlink.com 1.10,2013-03-17 14:33:00,
2013-03-17 09:48:00,16.0,8.0,30.33,ESE,113,8.0,17.0,72,0.00,,,0.00,weatherlink.com 1.10,2013-03-17 14:48:00,
2013-03-17 10:03:00,16.8,9.0,30.33,ESE,120,5.0,19.0,70,0.00,,,0.00,weatherlink.com 1.10,2013-03-17 15:03:00,
2013-03-17 10:18:00,17.8,9.0,30.33,East,95,3.0,11.0,68,0.00,,,0.00,weatherlink.com 1.10,2013-03-17 15:18:00,
2013-03-17 10:33:00,18.2,8.0,30.33,SSE,150,10.0,14.0,65,0.00,,,0.00,weatherlink.com 1.10,2013-03-17 15:33:00,
2013-03-17 10:48:00,18.3,8.0,30.32,ESE,106,10.0,19.0,64,0.00,,,0.00,weatherlink.com 1.10,2013-03-17 15:48:00,
2013-03-17 11:03:00,19.2,9.0,30.32,ESE,109,5.0,14.0,65,0.00,,,0.00,weatherlink.com 1.10,2013-03-17 16:03:00,
2013-03-17 11:18:00,20.1,9.0,30.31,SSE,149,8.0,15.0,63,0.00,,,0.00,weatherlink.com 1.10,2013-03-17 16:18:00,
2013-03-17 11:33:00,20.5,9.0,30.31,SE,139,8.0,14.0,62,0.00,,,0.00,weatherlink.com 1.10,2013-03-17 16:33:00,
2013-03-17 11:48:00,20.6,9.0,30.31,ESE,118,4.0,13.0,60,0.00,,,0.00,weatherlink.com 1.10,2013-03-17 16:48:00,
2013-03-17 12:03:00,21.9,10.0,30.30,ESE,119,8.0,11.0,61,0.00,,,0.00,weatherlink.com 1.10,2013-03-17 17:03:00,
2013-03-17 12:18:00,22.3,10.0,30.30,ESE,116,5.0,13.0,59,0.00,,,0.00,weatherlink.com 1.10,2013-03-17 17:18:00,
2013-03-17 12:33:00,22.8,9.0,30.29,ESE,119,8.0,10.0,56,0.00,,,0.00,weatherlink.com 1.10,2013-03-17 17:33:00,
2013-03-17 12:48:00,23.2,9.0,30.28,SE,136,5.0,14.0,56,0.00,,,0.00,weatherlink.com 1.10,2013-03-17 17:48:00,
2013-03-17 13:03:00,24.0,10.0,30.27,ESE,103,7.0,11.0,55,0.00,,,0.00,weatherlink.com 1.10,2013-03-17 18:03:00,
2013-03-17 13:18:00,24.7,10.0,30.27,SE,127,5.0,12.0,54,0.00,,,0.00,weatherlink.com 1.10,2013-03-17 18:18:00,
2013-03-17 13:33:00,25.0,11.0,30.26,SE,132,5.0,14.0,55,0.00,,,0.00,weatherlink.com 1.10,2013-03-17 18:33:00,
2013-03-17 13:48:00,25.9,13.0,30.25,ESE,119,4.0,11.0,58,0.00,,,0.00,weatherlink.com 1.10,2013-03-17 18:48:00,
2013-03-17 14:03:00,25.7,12.0,30.24,South,170,6.0,16.0,56,0.00,,,0.00,weatherlink.com 1.10,2013-03-17 19:03:00,
2013-03-17 14:18:00,26.1,12.0,30.23,SE,144,11.0,14.0,55,0.00,,,0.00,weatherlink.com 1.10,2013-03-17 19:18:00,
2013-03-17 14:33:00,26.1,12.0,30.23,SE,130,12.0,15.0,55,0.00,,,0.00,weatherlink.com 1.10,2013-03-17 19:33:00,
2013-03-17 14:49:00,26.4,13.0,30.21,SSE,149,2.0,14.0,56,0.00,,,0.00,weatherlink.com 1.10,2013-03-17 19:49:00,
2013-03-17 15:04:00,26.7,13.0,30.21,SE,134,12.0,14.0,56,0.00,,,0.00,weatherlink.com 1.10,2013-03-17 20:04:00,
2013-03-17 15:19:00,27.3,14.0,30.21,ENE,78,7.0,15.0,57,0.00,,,0.00,weatherlink.com 1.10,2013-03-17 20:19:00,
2013-03-17 15:34:00,28.1,15.0,30.20,ESE,105,8.0,12.0,58,0.00,,,0.00,weatherlink.com 1.10,2013-03-17 20:34:00,
2013-03-17 15:49:00,27.8,14.0,30.19,SE,144,7.0,16.0,57,0.00,,,0.00,weatherlink.com 1.10,2013-03-17 20:49:00,
2013-03-17 16:04:00,28.1,15.0,30.19,SSE,157,5.0,14.0,58,0.00,,,0.00,weatherlink.com 1.10,2013-03-17 21:04:00,
2013-03-17 16:19:00,27.8,15.0,30.18,ESE,123,8.0,17.0,58,0.00,,,0.00,weatherlink.com 1.10,2013-03-17 21:19:00,
2013-03-17 16:34:00,28.4,16.0,30.18,SE,130,4.0,14.0,60,0.00,,,0.00,weatherlink.com 1.10,2013-03-17 21:34:00,
2013-03-17 16:49:00,28.3,17.0,30.17,SE,141,7.0,16.0,62,0.00,,,0.00,weatherlink.com 1.10,2013-03-17 21:49:00,
2013-03-17 17:04:00,28.4,16.0,30.17,SE,126,9.0,16.0,60,0.00,,,0.00,weatherlink.com 1.10,2013-03-17 22:04:00,
2013-03-17 17:19:00,28.1,16.0,30.16,ESE,105,12.0,17.0,62,0.00,,,0.00,weatherlink.com 1.10,2013-03-17 22:19:00,
2013-03-17 17:34:00,28.2,16.0,30.16,East,96,10.0,16.0,60,0.00,,,0.00,weatherlink.com 1.10,2013-03-17 22:34:00,
2013-03-17 17:49:00,28.1,17.0,30.15,SSE,154,7.0,19.0,63,0.00,,,0.00,weatherlink.com 1.10,2013-03-17 22:49:00,
2013-03-17 18:04:00,27.6,16.0,30.15,SE,140,11.0,17.0,61,0.00,,,0.00,weatherlink.com 1.10,2013-03-17 23:04:00,
2013-03-17 18:19:00,26.9,15.0,30.15,SSE,155,7.0,16.0,61,0.00,,,0.00,weatherlink.com 1.10,2013-03-17 23:19:00,
2013-03-17 18:34:00,26.8,16.0,30.14,SE,129,6.0,13.0,64,0.00,,,0.00,weatherlink.com 1.10,2013-03-17 23:34:00,
2013-03-17 18:49:00,26.3,16.0,30.14,ESE,115,7.0,16.0,66,0.00,,,0.00,weatherlink.com 1.10,2013-03-17 23:49:00,
2013-03-17 19:04:00,25.7,15.0,30.13,ESE,105,5.0,14.0,65,0.00,,,0.00,weatherlink.com 1.10,2013-03-18 00:04:00,
2013-03-17 19:19:00,25.3,15.0,30.13,SE,141,2.0,14.0,66,0.00,,,0.00,weatherlink.com 1.10,2013-03-18 00:19:00,
2013-03-17 19:34:00,25.0,15.0,30.14,SE,126,9.0,15.0,66,0.00,,,0.00,weatherlink.com 1.10,2013-03-18 00:34:00,
2013-03-17 19:49:00,24.6,15.0,30.14,ESE,109,12.0,16.0,66,0.00,,,0.00,weatherlink.com 1.10,2013-03-18 00:49:00,
2013-03-17 20:04:00,24.5,15.0,30.14,SE,131,9.0,13.0,68,0.00,,,0.00,weatherlink.com 1.10,2013-03-18 01:04:00,
2013-03-17 20:19:00,24.1,16.0,30.14,SE,138,10.0,13.0,70,0.00,,,0.00,weatherlink.com 1.10,2013-03-18 01:19:00,
2013-03-17 20:34:00,23.9,16.0,30.14,ESE,119,5.0,13.0,71,0.00,,,0.00,weatherlink.com 1.10,2013-03-18 01:34:00,
2013-03-17 20:49:00,23.8,17.0,30.13,ESE,119,5.0,15.0,74,0.00,,,0.00,weatherlink.com 1.10,2013-03-18 01:49:00,
2013-03-17 21:04:00,23.6,17.0,30.12,SE,132,11.0,13.0,75,0.00,,,0.00,weatherlink.com 1.10,2013-03-18 02:04:00,
2013-03-17 21:19:00,23.1,16.0,30.12,SE,138,10.0,12.0,75,0.00,,,0.00,weatherlink.com 1.10,2013-03-18 02:19:00,
2013-03-17 21:34:00,22.8,17.0,30.11,SE,146,8.0,15.0,77,0.00,,,0.00,weatherlink.com 1.10,2013-03-18 02:34:00,
2013-03-17 21:49:00,22.5,16.0,30.11,SE,134,11.0,16.0,76,0.00,,,0.00,weatherlink.com 1.10,2013-03-18 02:49:00,
2013-03-17 22:04:00,22.3,16.0,30.11,ESE,111,7.0,17.0,76,0.00,,,0.00,weatherlink.com 1.10,2013-03-18 03:04:00,
2013-03-17 22:19:00,22.1,16.0,30.10,ESE,109,9.0,15.0,77,0.00,,,0.00,weatherlink.com 1.10,2013-03-18 03:19:00,
2013-03-17 22:34:00,21.7,15.0,30.10,SE,131,14.0,14.0,76,0.00,,,0.00,weatherlink.com 1.10,2013-03-18 03:34:00,
2013-03-17 22:49:00,21.5,15.0,30.09,ESE,114,9.0,14.0,77,0.00,,,0.00,weatherlink.com 1.10,2013-03-18 03:49:00,
2013-03-17 23:04:00,21.3,16.0,30.09,SE,130,3.0,15.0,79,0.00,,,0.00,weatherlink.com 1.10,2013-03-18 04:04:00,
2013-03-17 23:19:00,21.2,16.0,30.07,ESE,115,7.0,12.0,79,0.00,,,0.00,weatherlink.com 1.10,2013-03-18 04:19:00,
2013-03-17 23:34:00,21.1,16.0,30.07,ESE,110,5.0,13.0,81,0.00,,,0.00,weatherlink.com 1.10,2013-03-18 04:34:00,
2013-03-17 23:49:00,21.1,16.0,30.06,SE,134,4.0,14.0,81,0.00,,,0.00,weatherlink.com 1.10,2013-03-18 04:49:00,